sat.trackr.live / text

‹ back to catalog

STARLINK-5870

NORAD 57222 · 2023-094E

PAYLOAD ACTIVE UNKNOWN

§ Identity

Operator
Country
US
Launch date
2023-07-07
Launch site
AFWTR
Launch vehicle
Mass (kg)
RCS (m²)

Purposes: comms

External: N2YO · Heavens-Above · Gunter

§ Orbital elements

Epoch: 2026-05-24T23:02:59.412768Z

Period
94.27 min
Inclination
43.0019°
Eccentricity
0.0001361
Mean motion
15.27577368 rev/d
Perigee alt
482.1 km
Apogee alt
484.0 km
Semi-major
6,861.2 km
B*
2.7555e-5
RAAN
319.6817°
Arg perigee
252.0900°
Mean anomaly
107.9804°
Rev number
15,941

§ Raw data

STARLINK-58701 57222U 23094E   26144.96040987  .00000496  00000+0  27555-4 0  99922 57222  43.0019 319.6817 0001361 252.0900 107.9804 15.27577368159411

JSON: /api/v1/satellites/57222 · /tle

For live sub-satellite position, see the globe view (requires WebGL).

§ Visibility from observer

Set your observer location to see the next 7 days of passes ≥ 10°. The values pass through the URL so the page stays shareable.

No JS? Fill the form by hand. The geolocation button needs JavaScript.